Wind_Speed
91 90 92 92 91 88 88 88 90 88 89 88 85 82 82 74 66 67 72 66 57 64 59 52 52 51 47 53 52 53 46 51 56 56 54 50 47 46 45 38 39 38 35 30 31
89 91 90 91 92 93 89 90 91 89 88 88 93 90 86 86 78 65 71 70 67 67 64 60 56 54 52 50 56 57 52 53 60 60 58 53 47 50 46 44 39 41 38 35 31
92 90 91 89 90 91 91 92 90 92 90 88 88 89 95 92 89 81 76 67 75 71 71 64 65 59 56 55 54 60 57 58 61 63 59 55 51 53 48 47 46 41 40 39 36
94 94 92 94 91 92 94 95 94 92 90 90 88 87 87 88 94 85 84 78 72 70 72 71 68 67 63 60 61 57 64 62 63 65 62 58 58 54 54 49 51 44 42 46 42
97 95 96 96 96 95 97 98 96 95 93 93 93 91 87 85 83 91 91 86 79 81 77 70 72 71 68 68 66 62 63 68 65 67 65 62 62 58 57 56 54 48 45 50 46
101 101 97 98 96 97 98 99 99 96 95 94 94 95 92 83 88 88 93 93 89 81 82 79 71 77 76 74 69 67 65 67 69 66 68 66 65 63 59 60 59 54 49 53 49
108 106 103 101 100 99 98 99 99 97 99 100 99 98 94 87 96 93 88 95 97 94 90 82 83 78 76 78 77 73 68 66 68 70 69 73 69 65 64 64 63 57 54 55 53
117 113 112 108 108 104 100 102 101 99 103 102 102 102 93 93 100 100 95 94 95 99 97 95 89 83 81 80 77 77 72 66 67 73 74 78 68 72 72 69 67 62 60 58 54
118 120 121 119 112 111 106 103 104 103 105 105 103 104 94 93 99 100 105 102 97 97 98 100 97 98 90 85 82 70 68 73 74 78 78 79 69 78 80 75 71 65 63 61 59
93 107 113 123 120 117 113 109 108 104 108 110 108 103 96 95 97 104 106 109 109 103 98 101 105 102 97 92 81 82 78 79 79 81 85 83 72 80 81 80 78 70 65 65 64
91 95 97 109 119 123 122 116 115 116 113 110 110 103 104 101 105 103 104 110 111 114 102 103 108 102 93 97 94 94 92 89 81 83 89 85 81 81 79 80 79 76 71 68 69
92 94 97 98 102 117 124 125 125 122 119 115 115 106 107 107 105 104 104 108 112 109 114 117 107 89 95 100 104 102 99 95 85 88 92 89 86 82 80 80 79 78 76 73 73
93 95 95 98 99 100 114 126 131 127 125 121 119 116 112 118 110 111 109 109 112 111 113 115 103 105 103 103 109 109 106 98 92 101 101 97 93 86 82 79 77 78 77 76 75
92 97 98 96 94 100 103 115 124 131 130 123 119 119 116 116 124 112 107 110 112 110 114 118 105 113 113 109 104 105 101 106 114 111 109 107 104 92 83 82 81 81 81 80 78
90 95 98 96 99 99 106 106 111 119 131 127 127 120 122 130 112 120 118 116 110 111 118 117 112 112 116 112 110 104 108 111 111 116 118 118 113 84 92 88 86 85 85 83 84
87 96 99 99 98 103 104 107 107 108 114 123 130 126 127 132 124 122 124 125 117 122 124 123 114 117 116 112 113 116 120 116 113 117 122 111 112 94 98 95 96 93 91 90 88
78 86 92 94 95 100 106 106 107 109 104 104 115 126 135 138 130 131 131 129 129 128 125 123 115 110 117 119 115 120 117 119 123 123 118 104 117 106 103 103 102 102 100 92 92
63 73 82 87 91 97 102 107 108 107 105 105 110 112 124 132 128 129 131 136 133 131 130 131 123 116 113 113 115 116 119 123 125 128 123 114 122 113 105 107 104 104 103 100 96
51 59 68 75 84 91 97 102 104 107 106 110 117 117 114 115 120 124 128 131 131 132 130 130 127 117 122 121 121 120 128 123 128 129 131 126 123 120 104 106 104 104 105 105 102
42 49 55 62 71 80 87 93 99 104 106 111 118 117 113 114 114 116 123 126 128 129 128 130 128 122 122 122 124 129 123 127 127 131 133 128 125 124 110 102 103 107 109 107 109
34 39 44 52 59 65 72 81 88 94 100 108 114 118 116 118 116 115 118 121 124 128 131 131 132 121 130 129 125 122 128 128 130 130 131 129 128 119 116 110 107 103 108 112 112
31 35 38 42 47 55 61 66 72 81 85 96 107 112 110 120 120 121 120 120 120 118 121 124 122 124 124 123 128 126 128 126 131 131 130 130 127 115 118 110 111 113 108 106 107
28 31 34 37 42 46 49 54 61 66 70 78 89 101 108 117 119 121 120 121 121 124 122 120 121 115 116 125 126 133 134 131 132 128 134 132 129 109 110 112 116 117 114 112 108
24 26 28 31 34 39 42 47 52 56 61 65 75 86 98 108 116 120 118 119 121 120 123 126 122 118 110 111 119 125 124 126 125 128 126 126 118 116 106 105 105 112 119 116 115
22 22 24 25 28 31 34 38 43 47 51 58 65 73 82 89 104 108 113 115 118 123 130 130 123 122 118 111 112 111 114 116 121 121 123 121 115 118 106 103 100 104 109 113 120
21 18 19 20 23 25 28 31 35 40 44 49 55 62 69 79 88 97 103 112 118 123 125 125 126 124 116 116 120 120 117 114 114 113 113 116 119 111 93 94 96 95 99 102 103
21 17 15 17 20 21 24 26 31 34 38 42 48 55 63 70 76 80 85 96 106 113 121 125 126 123 116 121 123 122 113 114 114 111 109 112 108 103 96 88 91 94 97 95 96
Wind_Direction
249 250 249 247 246 245 245 244 242 239 239 238 239 240 238 234 235 245 245 240 243 239 241 239 242 245 245 241 242 238 233 227 229 231 232 230 239 244 247 253 259 266 268 268 271
249 248 249 248 246 246 244 245 244 243 241 239 237 238 238 236 236 236 247 245 244 240 241 240 241 241 244 245 242 240 236 231 232 233 235 237 237 245 249 254 256 263 269 275 273
249 248 247 246 245 244 245 243 243 243 242 242 240 240 238 237 235 235 237 241 244 246 241 241 244 240 240 243 244 239 237 236 233 235 237 239 235 245 246 253 256 260 271 273 273
247 246 246 245 243 244 244 243 243 242 243 243 241 240 238 239 237 237 239 239 236 238 245 239 240 244 239 241 241 243 239 240 237 236 236 240 242 242 250 249 255 257 266 272 275
244 245 245 244 244 244 243 244 244 243 243 242 242 240 237 237 239 233 237 238 240 237 235 241 244 243 245 240 241 242 243 240 241 239 238 240 243 244 248 251 254 257 260 267 272
244 242 243 241 242 242 244 244 244 243 242 241 239 239 237 235 236 236 236 237 238 239 238 235 242 245 243 244 245 244 244 244 243 244 244 240 243 245 248 252 254 257 255 264 268
243 244 242 241 240 239 240 243 242 242 239 236 237 235 234 232 231 234 236 239 241 241 238 238 236 235 240 243 244 242 242 243 245 246 247 247 245 247 249 251 253 256 258 262 268
246 245 246 244 240 239 239 238 239 238 237 235 235 235 233 230 231 230 229 233 238 241 240 240 236 237 238 237 241 244 244 246 246 248 248 248 248 251 250 250 253 255 258 261 267
249 247 243 243 243 239 237 236 235 236 236 234 233 233 230 229 233 230 232 228 230 235 238 240 238 238 238 239 238 239 246 248 245 249 248 250 247 249 250 251 253 253 256 258 262
249 247 244 242 241 238 237 235 234 234 235 233 232 233 231 228 232 232 230 234 230 228 230 236 239 239 239 240 242 246 240 240 242 247 248 248 246 247 249 250 253 253 254 256 260
249 248 247 242 241 238 236 236 235 233 233 232 233 233 233 231 229 234 233 233 235 233 231 233 236 240 241 241 241 243 243 239 238 243 250 252 249 249 249 251 254 256 256 257 261
251 248 246 245 242 238 237 236 235 234 232 232 231 232 234 232 231 233 238 237 236 236 237 239 234 235 235 239 241 242 243 240 240 244 248 249 249 251 250 251 254 255 257 258 260
249 248 245 242 242 241 237 238 235 234 232 232 232 232 234 236 233 232 234 239 237 235 239 242 239 241 235 234 239 241 242 242 241 245 246 246 246 246 248 254 257 259 260 260 262
245 245 244 242 241 240 239 238 236 235 234 232 235 233 234 238 235 234 236 235 239 240 239 240 237 241 242 236 237 240 243 243 244 244 246 249 246 246 249 249 250 255 258 260 261
245 242 242 240 239 239 239 238 238 236 234 234 232 235 235 235 236 235 233 234 236 240 241 240 236 240 242 243 245 238 240 238 239 244 243 245 250 241 253 252 253 254 254 256 259
242 243 242 240 237 239 239 238 238 238 236 235 234 234 235 237 237 238 238 236 235 236 240 240 237 236 239 241 243 244 242 240 238 240 243 244 251 240 249 253 253 253 254 254 256
244 243 243 243 239 238 238 237 237 237 238 237 236 233 234 236 235 237 238 239 238 237 239 241 240 238 239 240 241 245 246 247 245 243 244 243 247 243 246 250 254 254 253 255 256
244 245 244 242 240 239 237 236 234 235 234 236 237 235 234 235 236 238 241 240 238 240 239 239 237 240 244 243 243 245 246 247 247 247 247 239 241 242 241 243 248 253 255 255 257
249 244 243 243 241 241 239 236 236 234 232 232 235 235 234 233 233 237 239 241 243 240 241 240 237 241 241 244 243 243 244 246 247 247 246 243 242 244 240 241 245 250 255 255 257
254 250 246 244 242 241 241 241 237 236 234 233 234 236 235 236 233 235 236 237 239 240 241 241 241 235 240 241 242 243 246 244 247 248 248 247 245 246 243 244 244 246 250 253 254
262 257 252 248 246 245 242 240 240 239 236 235 235 236 235 235 236 235 236 239 238 239 241 241 240 234 237 238 241 243 245 246 247 249 249 247 245 247 246 246 245 246 248 249 253
265 259 257 254 250 247 245 244 242 241 239 236 237 238 237 237 236 235 236 237 239 240 241 242 240 239 240 240 242 243 243 247 248 248 249 250 247 245 249 249 250 247 247 250 251
273 270 265 259 253 251 249 246 244 243 241 239 238 238 236 238 238 238 236 237 237 239 240 241 241 239 236 239 242 243 243 246 250 251 251 250 251 248 250 251 249 249 249 250 252
280 272 269 265 259 255 250 246 244 242 240 238 237 236 236 235 238 239 238 238 239 239 241 241 240 241 239 237 241 244 243 243 246 249 253 251 254 248 246 252 254 254 251 250 251
285 279 275 271 265 258 253 249 246 243 239 236 236 236 238 237 239 238 238 238 239 239 240 241 241 240 240 239 240 240 243 246 246 246 247 251 252 250 251 250 250 253 253 253 251
300 290 282 276 267 262 257 250 245 241 238 237 236 235 236 236 236 237 236 237 238 238 241 243 244 242 239 240 240 240 240 242 245 246 247 251 252 258 253 252 253 254 255 255 256
316 305 290 279 273 267 261 252 247 243 242 240 237 235 235 235 237 238 237 237 238 239 242 241 242 244 241 240 241 241 241 243 246 248 249 249 253 254 251 246 252 253 253 254 254
Height
10658 10663 10668 10674 10679 10686 10693 10700 10706 10713 10720 10728 10733 10740 10745 10752 10756 10765 10772 10776 10788 10784 10790 10795 10798 10801 10804 10806 10810 10814 10820 10825 10826 10827 10831 10836 10840 10840 10842 10848 10847 10848 10851 10855 10858
10638 10643 10648 10654 10660 10666 10672 10679 10686 10694 10701 10709 10716 10722 10729 10737 10745 10757 10750 10768 10771 10775 10780 10783 10788 10792 10796 10798 10800 10805 10812 10815 10814 10818 10822 10828 10836 10832 10837 10838 10844 10842 10844 10846 10851
10617 10622 10627 10633 10640 10647 10653 10659 10666 10673 10682 10689 10697 10703 10711 10720 10731 10740 10744 10750 10758 10763 10769 10773 10777 10782 10786 10788 10790 10794 10803 10802 10805 10809 10815 10822 10829 10825 10831 10832 10834 10838 10838 10839 10840
10595 10600 10606 10612 10620 10627 10632 10639 10646 10654 10661 10669 10676 10684 10691 10702 10714 10733 10733 10735 10740 10748 10755 10759 10765 10771 10775 10778 10778 10784 10789 10792 10796 10800 10807 10813 10816 10821 10821 10825 10824 10832 10834 10829 10832
10572 10578 10584 10589 10598 10605 10611 10617 10625 10633 10641 10648 10656 10663 10674 10689 10704 10707 10712 10719 10725 10731 10739 10745 10754 10758 10764 10763 10767 10775 10777 10781 10785 10790 10798 10802 10806 10812 10814 10815 10817 10823 10826 10823 10827
10546 10553 10560 10568 10575 10582 10589 10596 10604 10611 10619 10627 10633 10641 10657 10682 10678 10689 10697 10703 10709 10717 10725 10731 10737 10742 10749 10754 10759 10761 10767 10772 10777 10783 10786 10793 10795 10801 10806 10806 10807 10812 10818 10815 10819
10518 10526 10534 10542 10550 10559 10566 10573 10581 10589 10596 10605 10611 10619 10639 10670 10658 10667 10685 10687 10690 10699 10707 10713 10719 10726 10734 10742 10744 10748 10756 10762 10771 10771 10776 10776 10787 10794 10794 10794 10797 10804 10808 10808 10811
10489 10497 10507 10516 10525 10534 10543 10550 10557 10565 10573 10581 10588 10598 10631 10641 10635 10653 10665 10666 10673 10678 10687 10694 10703 10711 10716 10722 10729 10736 10746 10758 10759 10756 10763 10759 10784 10779 10780 10783 10788 10795 10797 10800 10803
10455 10464 10475 10486 10497 10507 10516 10526 10533 10541 10549 10557 10567 10579 10611 10622 10624 10631 10637 10647 10652 10658 10665 10672 10683 10691 10698 10707 10713 10727 10743 10747 10744 10740 10742 10744 10770 10761 10763 10770 10776 10783 10787 10791 10794
10423 10430 10442 10454 10465 10476 10487 10498 10507 10515 10521 10531 10545 10565 10598 10608 10600 10600 10614 10616 10626 10632 10643 10653 10656 10665 10685 10697 10717 10713 10718 10719 10726 10726 10720 10728 10752 10744 10748 10756 10761 10771 10777 10780 10782
10399 10405 10409 10419 10431 10445 10460 10470 10475 10482 10493 10514 10529 10552 10559 10571 10580 10582 10589 10596 10604 10613 10637 10629 10624 10660 10687 10679 10685 10687 10693 10700 10710 10714 10703 10718 10730 10733 10739 10744 10750 10757 10763 10767 10770
10370 10375 10382 10391 10398 10412 10427 10435 10443 10455 10474 10491 10506 10532 10539 10547 10562 10573 10571 10581 10584 10608 10603 10589 10625 10669 10642 10656 10659 10666 10673 10686 10698 10694 10685 10697 10707 10717 10726 10733 10737 10742 10749 10754 10756
10339 10344 10351 10362 10373 10385 10395 10398 10412 10428 10446 10465 10485 10503 10519 10506 10544 10548 10552 10554 10564 10574 10575 10579 10631 10609 10619 10625 10633 10645 10654 10676 10679 10664 10661 10675 10685 10701 10713 10721 10730 10730 10734 10737 10741
10305 10311 10320 10333 10351 10358 10362 10370 10377 10396 10414 10448 10462 10484 10488 10497 10493 10533 10540 10538 10534 10558 10562 10554 10599 10588 10594 10607 10615 10630 10652 10646 10645 10643 10648 10651 10662 10687 10705 10709 10713 10716 10718 10721 10724
10276 10280 10288 10305 10317 10327 10334 10344 10354 10376 10383 10420 10432 10459 10460 10449 10507 10496 10504 10503 10526 10537 10516 10534 10569 10570 10575 10597 10596 10618 10604 10607 10615 10611 10626 10626 10634 10709 10685 10693 10698 10700 10703 10706 10708
10247 10250 10258 10273 10291 10298 10309 10319 10333 10348 10362 10385 10397 10424 10429 10432 10462 10467 10470 10480 10509 10492 10487 10507 10541 10544 10557 10571 10572 10577 10568 10582 10592 10591 10583 10635 10632 10683 10671 10673 10676 10680 10685 10690 10691
10222 10227 10235 10249 10264 10273 10280 10296 10310 10321 10345 10368 10376 10382 10385 10392 10426 10427 10441 10450 10461 10470 10475 10492 10519 10536 10525 10536 10556 10555 10565 10564 10561 10562 10581 10631 10601 10636 10646 10654 10654 10657 10663 10675 10671
10203 10208 10216 10225 10235 10242 10255 10265 10280 10302 10328 10340 10342 10350 10356 10370 10399 10410 10411 10419 10434 10440 10456 10462 10486 10508 10523 10525 10538 10529 10529 10521 10528 10541 10560 10587 10556 10596 10630 10624 10639 10640 10648 10657 10661
10187 10190 10194 10203 10210 10218 10227 10239 10259 10275 10295 10306 10297 10307 10332 10345 10369 10375 10380 10388 10403 10419 10425 10436 10463 10489 10485 10490 10495 10512 10489 10512 10503 10510 10513 10546 10555 10564 10614 10619 10629 10631 10634 10641 10643
10175 10176 10180 10185 10189 10196 10206 10220 10235 10245 10267 10277 10275 10286 10314 10320 10339 10349 10352 10363 10370 10378 10395 10411 10420 10458 10453 10455 10460 10466 10485 10484 10480 10486 10497 10527 10546 10552 10596 10613 10615 10616 10618 10616 10623
10162 10165 10168 10170 10175 10181 10188 10196 10206 10221 10239 10250 10256 10264 10288 10297 10311 10325 10329 10333 10343 10355 10362 10385 10386 10438 10420 10423 10442 10451 10449 10453 10466 10463 10474 10496 10517 10551 10568 10587 10590 10595 10594 10599 10602
10151 10152 10154 10158 10163 10166 10171 10180 10189 10197 10213 10227 10237 10246 10269 10265 10276 10288 10303 10310 10326 10337 10342 10349 10371 10388 10406 10426 10415 10420 10426 10430 10428 10445 10454 10469 10490 10537 10541 10567 10566 10571 10579 10575 10591
10144 10144 10145 10146 10148 10152 10158 10165 10172 10180 10192 10205 10214 10220 10236 10239 10251 10263 10279 10289 10295 10300 10316 10326 10332 10358 10383 10381 10390 10391 10413 10422 10421 10430 10423 10440 10467 10531 10531 10535 10544 10545 10555 10559 10563
10137 10136 10135 10136 10139 10141 10144 10149 10154 10163 10172 10182 10187 10194 10199 10213 10219 10232 10252 10265 10275 10288 10286 10293 10318 10331 10351 10364 10363 10364 10383 10397 10399 10397 10410 10423 10451 10483 10510 10514 10519 10517 10525 10539 10541
10130 10129 10129 10129 10129 10130 10133 10137 10141 10147 10154 10160 10166 10174 10181 10196 10198 10216 10230 10242 10251 10253 10251 10263 10281 10301 10322 10342 10345 10356 10362 10369 10372 10387 10386 10404 10418 10450 10488 10491 10492 10488 10501 10506 10509
10126 10124 10123 10122 10120 10121 10123 10125 10128 10132 10137 10142 10149 10156 10162 10167 10170 10180 10200 10210 10217 10224 10230 10242 10255 10265 10300 10314 10314 10317 10331 10348 10356 10372 10383 10393 10402 10429 10471 10471 10465 10481 10475 10473 10483
10122 10120 10118 10116 10114 10115 10115 10117 10117 10121 10126 10131 10134 10138 10141 10144 10155 10169 10185 10192 10201 10209 10206 10218 10223 10238 10270 10275 10274 10291 10336 10339 10345 10350 10360 10364 10387 10413 10430 10449 10450 10450 10443 10453 10455